This demonstration page uses our WeatherBlox Daily Observations layout. Learn more.

Left ArrowRight Arrow

Hourly Observations for September 18, 2017

Temp ( °F °C ) Dew Point ( °F °C ) Humidity (%) Winds ( mph kmh ) Pressure ( in mb ) Visibility ( mi km ) Precip ( " mm )
12:10 am 00:10 Cloudy 68 20 66 19 94 94 N N/A 30.09 1019 10 16 N/A
12:31 am 00:31 Cloudy 68 20 66 19 94 94 N N/A 30.09 1019 10 16 N/A
12:50 am 00:50 Cloudy 68 20 66 19 94 94 ESE 3 6 30.09 1019 10 16 N/A
1:10 am 01:10 Cloudy 68 20 66 19 94 94 ENE 5 7 30.09 1019 10 16 N/A
1:30 am 01:30 Cloudy 70 21 66 19 88 88 NNW 3 6 30.09 1019 10 16 N/A
1:50 am 01:50 Cloudy 68 20 66 19 94 94 NW 3 6 30.09 1019 10 16 N/A
2:10 am 02:10 Cloudy 68 20 66 19 94 94 N N/A 30.09 1019 10 16 N/A
2:30 am 02:30 Mostly Cloudy 68 20 66 19 94 94 N N/A 30.09 1019 10 16 N/A
2:50 am 02:50 Mostly Cloudy 68 20 66 19 94 94 N N/A 30.09 1019 10 16 N/A
3:10 am 03:10 Cloudy 66 19 66 19 100 100 N N/A 30.09 1019 7 11 N/A
3:30 am 03:30 Cloudy 66 19 66 19 100 100 N N/A 30.06 1018 7 11 N/A
3:50 am 03:50 Mostly Cloudy 66 19 66 19 100 100 N N/A 30.06 1018 10 16 N/A
4:10 am 04:10 Partly Cloudy 66 19 66 19 100 100 N N/A 30.06 1018 7 11 N/A
4:30 am 04:30 Mostly Cloudy 66 19 66 19 100 100 N N/A 30.06 1018 7 11 N/A
4:50 am 04:50 Mostly Cloudy 66 19 64 18 94 94 N N/A 30.06 1018 7 11 N/A
5:10 am 05:10 Mostly Cloudy 66 19 66 19 100 100 N N/A 30.06 1018 7 11 N/A
5:30 am 05:30 Partly Cloudy 66 19 64 18 94 94 N N/A 30.06 1018 5 8 N/A
5:51 am 05:51 Mostly Cloudy 66 19 66 19 100 100 ENE 3 6 30.06 1018 4 6 N/A
6:10 am 06:10 Cloudy 66 19 66 19 100 100 NE 3 6 30.06 1018 5 8 N/A
6:30 am 06:30 Cloudy 66 19 66 19 100 100 N N/A 30.06 1018 4 6 N/A
6:51 am 06:51 Cloudy 66 19 66 19 100 100 N N/A 30.06 1018 4 6 N/A
7:10 am 07:10 Cloudy 66 19 66 19 100 100 N N/A 30.06 1018 5 8 N/A
7:30 am 07:30 Cloudy 66 19 66 19 100 100 N N/A 30.09 1019 4 6 N/A
7:51 am 07:51 Cloudy 66 19 66 19 100 100 N N/A 30.09 1019 3 5 N/A
8:10 am 08:10 Cloudy 66 19 66 19 100 100 N N/A 30.09 1019 3 4 N/A
8:30 am 08:30 Cloudy 66 19 66 19 100 100 N N/A 30.09 1019 2 3 N/A
8:51 am 08:51 Cloudy 66 19 66 19 100 100 N N/A 30.09 1019 4 6 N/A
9:10 am 09:10 Cloudy 68 20 66 19 94 94 WSW 3 6 30.12 1020 3 5 N/A
9:30 am 09:30 Cloudy 68 20 66 19 94 94 N N/A 30.12 1020 4 6 N/A
9:51 am 09:51 Mostly Cloudy 68 20 66 19 94 94 N N/A 30.12 1020 4 6 N/A
10:10 am 10:10 Mostly Cloudy 68 20 68 20 100 100 N N/A 30.09 1019 5 8 N/A
10:30 am 10:30 Mostly Cloudy 68 20 68 20 100 100 N N/A 30.12 1020 5 8 N/A
10:51 am 10:51 Cloudy 70 21 68 20 94 94 ESE 5 7 30.12 1020 5 8 N/A
11:10 am 11:10 Mostly Cloudy 70 21 68 20 94 94 SE 6 9 30.09 1019 5 8 N/A
11:30 am 11:30 Sunny 70 21 68 20 94 94 SE 3 6 30.09 1019 7 11 N/A
11:51 am 11:51 Partly Cloudy 72 22 68 20 88 88 ESE 3 6 30.06 1018 7 11 N/A
12:10 pm 12:10 Mostly Cloudy 72 22 68 20 88 88 ESE 3 6 30.06 1018 10 16 N/A
12:30 pm 12:30 Mostly Cloudy 72 22 68 20 88 88 N N/A 30.06 1018 10 16 N/A
12:51 pm 12:51 Partly Cloudy 73 23 68 20 83 83 N N/A 30.06 1018 10 16 N/A
1:10 pm 13:10 Sunny 75 24 68 20 78 78 N N/A 30.06 1018 10 16 N/A
1:30 pm 13:30 undefined 75 24 68 20 78 78 undefined N/A N/A N/A N/A
1:51 pm 13:51 undefined N/A N/A N/A undefined N/A N/A N/A N/A
2:10 pm 14:10 undefined N/A N/A N/A undefined N/A N/A N/A N/A
2:30 pm 14:30 undefined N/A N/A N/A undefined N/A N/A N/A N/A
2:51 pm 14:51 undefined N/A N/A N/A undefined N/A N/A N/A N/A
3:10 pm 15:10 undefined N/A N/A N/A undefined N/A N/A N/A N/A
3:30 pm 15:30 undefined N/A N/A N/A undefined N/A N/A N/A N/A
3:51 pm 15:51 undefined N/A N/A N/A undefined N/A N/A N/A N/A
4:10 pm 16:10 undefined N/A N/A N/A undefined N/A N/A N/A N/A
4:30 pm 16:30 undefined N/A N/A N/A undefined N/A N/A N/A N/A
4:50 pm 16:50 undefined N/A N/A N/A undefined N/A N/A N/A N/A
5:10 pm 17:10 undefined N/A N/A N/A undefined N/A N/A N/A N/A
5:31 pm 17:31 undefined N/A N/A N/A undefined N/A N/A N/A N/A
5:50 pm 17:50 undefined N/A N/A N/A undefined N/A N/A N/A N/A
6:11 pm 18:11 undefined N/A N/A N/A undefined N/A N/A N/A N/A
6:30 pm 18:30 undefined N/A N/A N/A undefined N/A N/A N/A N/A
6:50 pm 18:50 undefined N/A N/A N/A undefined N/A N/A N/A N/A
7:11 pm 19:11 undefined N/A N/A N/A undefined N/A N/A N/A N/A
7:30 pm 19:30 undefined N/A N/A N/A undefined N/A N/A N/A N/A
7:50 pm 19:50 undefined N/A N/A N/A undefined N/A N/A N/A N/A
8:11 pm 20:11 undefined N/A N/A N/A undefined N/A N/A N/A N/A
8:30 pm 20:30 undefined N/A N/A N/A undefined N/A N/A N/A N/A
8:50 pm 20:50 undefined N/A N/A N/A undefined N/A N/A N/A N/A
9:11 pm 21:11 undefined N/A N/A N/A undefined N/A N/A N/A N/A
9:30 pm 21:30 undefined N/A N/A N/A undefined N/A N/A N/A N/A
9:50 pm 21:50 undefined N/A N/A N/A undefined N/A N/A N/A N/A
10:11 pm 22:11 undefined N/A N/A N/A undefined N/A N/A N/A N/A
10:30 pm 22:30 undefined N/A N/A N/A undefined N/A N/A N/A N/A
10:50 pm 22:50 undefined N/A N/A N/A undefined N/A N/A N/A N/A
11:10 pm 23:10 undefined N/A N/A N/A undefined N/A N/A N/A N/A
11:30 pm 23:30 undefined N/A N/A N/A undefined N/A N/A N/A N/A
11:50 pm 23:50 undefined N/A N/A N/A undefined N/A N/A N/A N/A

Powered by AerisWeather